Вернуться в каталог

FENGYUN 1C DEB

АктивенPO
NORAD 31169·DEBRIS·🇨🇳 China

Запущен May 10, 1999 с Taiyuan Satellite Launch Center

Loading…

Ближайшие Пролёты (ближайшие 24 часа)

TLE

СвежийSource: Space-Track

Эпоха: Sep 14, 2026, 13:27 UTC

1 31169U 99025BHX 26257.56041978  .00002543  00000-0  10135-2 0  9993
2 31169  99.1386 301.7783 0054740 303.0020  56.5906 14.28710086610404

Отслеживайте FENGYUN 1C DEB в реальном времени с AllMySat

Download on the App Store